Track COSMOS 2275 (GLONASS) now! COSMOS 2275 (GLONASS) is classified as:
1 23045U 94021C 21023.65036677 -.00000044 00000-0 00000-0 0 9997 2 23045 64.7981 9.6471 0026427 36.8087 134.1791 2.13102021208234